Regional Weather Roundup
Issued by NWS

Home | Current Version | Previous Version | Graphics & Text | Print | Product List | Glossary Off
Versions: 1 2 3 4 5 6 7 8 9 10 11 12 13 14 15 16 17 18 19 20 21 22 23 24 25 26 27 28 29 30 31 32 33 34 35 36 37 38 39 40 41 42 43 44 45 46 47 48 49 50

000
ASUS43 KMKX 291221
RWRWI

WISCONSIN REGIONAL WEATHER ROUNDUP
NATIONAL WEATHER SERVICE MILWAUKEE/SULLIVAN WI
700 AM CDT MON MAY 29 2017

NOTE: "FAIR" INDICATES FEW OR NO CLOUDS BELOW 12,000 FEET WITH NO
SIGNIFICANT WEATHER AND/OR OBSTRUCTIONS TO VISIBILITY.

WIZ001-002-006>008-014>016-023>028-291300-
NORTHWEST WISCONSIN

CITY           SKY/WX    TMP DP  RH WIND       PRES   REMARKS
SUPERIOR ARPT  NOT AVBL
ASHLAND        CLOUDY    53  50  89 SW8       29.64R
6HR MIN TEMP:  51; 6HR MAX TEMP:  53; 6HR PCP: TRACE;

HAYWARD        CLOUDY    53  48  83 VRB6      29.68S
6HR MIN TEMP:  46; 6HR MAX TEMP:  53; 6HR PCP: TRACE;

SIREN          CLOUDY    52  49  90 W8        29.71R
6HR MIN TEMP:  52; 6HR MAX TEMP:  52; 6HR PCP:  0.01;

CUMBERLAND     CLOUDY    50  46  87 W14       29.71R
RICE LAKE      CLOUDY    53  49  87 W7        29.72R
6HR MIN TEMP:  51; 6HR MAX TEMP:  55;

CHETEK         CLOUDY    53  50  89 W7        29.71R
6HR MIN TEMP:  51; 6HR MAX TEMP:  54;

LADYSMITH      CLOUDY    52  49  91 SW6       29.71R
6HR MIN TEMP:  49; 6HR MAX TEMP:  54;

EAU CLAIRE     CLOUDY    53  50  89 W9        29.72R
6HR MIN TEMP:  49; 6HR MAX TEMP:  53;

MENOMONIE      CLOUDY    55  50  85 W9G18     29.73R
6HR MIN TEMP:  52; 6HR MAX TEMP:  55;

NEW RICHMOND   CLOUDY    52  49  89 W13       29.75R
6HR MIN TEMP:  52; 6HR MAX TEMP:  53;

OSCEOLA        CLOUDY    53  53 100 W10       29.77R
6HR MIN TEMP:  52; 6HR MAX TEMP:  54;

$$

WIZ003>005-009-010-017-018-291300-
NORTH CENTRAL WISCONSIN

CITY           SKY/WX    TMP DP  RH WIND       PRES   REMARKS
MANITOWISH WTR CLOUDY    48  48 100 SW5       29.63S
6HR MIN TEMP:  46; 6HR MAX TEMP:  48;

ARBOR VITAE    CLOUDY    52  50  92 W6        29.64S
6HR MIN TEMP:  49; 6HR MAX TEMP:  52;

WOODRUFF       CLOUDY    52  50  92 W6        29.64S
6HR MIN TEMP:  49; 6HR MAX TEMP:  52;

RHINELANDER    PTSUNNY   52  48  86 W10       29.66R
6HR MIN TEMP:  47; 6HR MAX TEMP:  52;

EAGLE RIVER    CLOUDY    49  48  97 W8        29.64R
6HR MIN TEMP:  44; 6HR MAX TEMP:  50;

LAND O LAKES   CLOUDY    49  48  97 SW3       29.64S
6HR MIN TEMP:  47; 6HR MAX TEMP:  50;

PHILLIPS       CLOUDY    47  47  99 W5        29.66R
6HR MIN TEMP:  47; 6HR MAX TEMP:  50;

TOMAHAWK       MOSUNNY   49  46  88 SW3       29.67S
6HR MIN TEMP:  47; 6HR MAX TEMP:  50;

MEDFORD        CLOUDY    49  47  92 SW7       29.69R
6HR MIN TEMP:  47; 6HR MAX TEMP:  52;

MERRILL        MOSUNNY   51  48  90 SW6       29.69R
6HR MIN TEMP:  47; 6HR MAX TEMP:  52;

$$

WIZ029-030-035-036-043>047-291300-
CENTRAL WISCONSIN

CITY           SKY/WX    TMP DP  RH WIND       PRES   REMARKS
WAUSAU         MOSUNNY   52  47  83 W8        29.68R
6HR MIN TEMP:  50; 6HR MAX TEMP:  53; 6HR PCP: TRACE;

MOSINEE        MOSUNNY   52  50  93 W8        29.71R
MARSHFIELD     PTSUNNY   51  47  86 W8        29.71R
6HR MIN TEMP:  47; 6HR MAX TEMP:  52;

STEVENS POINT  SUNNY     52  46  80 W8        29.73R
6HR MIN TEMP:  48; 6HR MAX TEMP:  52;

WAUPACA        MOSUNNY   56  48  74 W9        29.72R
6HR MIN TEMP:  51; 6HR MAX TEMP:  56;

WAUTOMA        PTSUNNY   54  48  80 SW6       29.74R
6HR MIN TEMP:  49; 6HR MAX TEMP:  55;

WISC RAPIDS    CLOUDY    54  47  77 W8        29.74R
6HR MIN TEMP:  50; 6HR MAX TEMP:  54;

CAMP DOUGLAS   SUNNY     53  46  78 W13       29.75R
6HR MIN TEMP:  42; 6HR MAX TEMP:  53;

$$

WIZ011>013-019>022-031-037>040-048>050-291300-
NORTHEAST WISCONSIN

CITY           SKY/WX    TMP DP  RH WIND       PRES   REMARKS
ANTIGO         MOSUNNY   50  48  93 W9        29.69R
6HR MIN TEMP:  45; 6HR MAX TEMP:  50;

SHAWANO        CLOUDY    56  49  77 SW6       29.69R
6HR MIN TEMP:  53; 6HR MAX TEMP:  57;

OCONTO         CLOUDY    54  48  80 SW7       29.68R
6HR MIN TEMP:  50; 6HR MAX TEMP:  54;

STURGEON BAY   CLOUDY    55  49  80 SW7       29.69R
6HR MIN TEMP:  53; 6HR MAX TEMP:  57;

GREEN BAY      CLOUDY    56  52  86 SW5       29.69R
6HR MIN TEMP:  54; 6HR MAX TEMP:  58; 6HR PCP:  0.05;

MANITOWOC      MOSUNNY   59  48  67 MISG      29.70S
6HR MIN TEMP:  53; 6HR MAX TEMP:  59; 6HR PCP: TRACE;

APPLETON       MOSUNNY   55  45  67 SW10      29.70R
CLINTONVILLE   PTSUNNY   54  46  76 SW6       29.69R
OSHKOSH        SUNNY     57  47  69 W7        29.72R
6HR MIN TEMP:  52; 6HR MAX TEMP:  58; 6HR PCP: TRACE;

$$

WIZ032>034-041-042-053>061-291300-
SOUTHWEST WISCONSIN

CITY           SKY/WX    TMP DP  RH WIND       PRES   REMARKS
LA CROSSE      SUNNY     57  48  72 W12       29.78R
6HR MIN TEMP:  55; 6HR MAX TEMP:  58;

SPARTA         CLOUDY    52  48  85 W6        29.78R
6HR MIN TEMP:  40; 6HR MAX TEMP:  52;

VIROQUA        SUNNY     52  46  80 N10G17    29.80R
6HR MIN TEMP:  50; 6HR MAX TEMP:  56;

BOSCOBEL       SUNNY     58  47  66 SW8       29.81S
6HR MIN TEMP:  51; 6HR MAX TEMP:  58;

PRAIRIE DU CHI MOSUNNY   58  44  60 W12G17    29.83S
6HR MIN TEMP:  51; 6HR MAX TEMP:  62;

PLATTEVILLE    CLOUDY    57  50  79 W9        29.83S
6HR MIN TEMP:  53; 6HR MAX TEMP:  58;

$$

WIZ056-057-062-063-064-067-068-291300-
SOUTH CENTRAL WISCONSIN

CITY           SKY/WX    TMP DP  RH WIND       PRES   REMARKS
REEDSBURG      SUNNY     54  46  74 SW12      29.77R
6HR MIN TEMP:  47; 6HR MAX TEMP:  54;

BARABOO/DELLS  SUNNY     55  45  67 SW9       29.77R
6HR MIN TEMP:  47; 6HR MAX TEMP:  55;

LONE ROCK      SUNNY     57  47  69 W8        29.80R
6HR MIN TEMP:  46; 6HR MAX TEMP:  57;

MINERAL POINT  PTSUNNY   57  46  67 W12       29.81S
MADISON        MOSUNNY   58  46  64 VRB6      29.77R
6HR MIN TEMP:  56; 6HR MAX TEMP:  60;

MIDDLETON      MOSUNNY   58  47  65 W9        29.79S
6HR MIN TEMP:  53; 6HR MAX TEMP:  58;

WATERTOWN      PTSUNNY   58  48  71 W8        29.77R
6HR MIN TEMP:  48; 6HR MAX TEMP:  58;

MONROE         CLOUDY    55  46  71 SW13      29.81R
JANESVILLE     MOSUNNY   59  46  63 SW9       29.80R
$$

WIZ051-052-058>065-066-070>072-291300-
SOUTHEAST WISCONSIN

CITY           SKY/WX    TMP DP  RH WIND       PRES   REMARKS
MILWAUKEE      MOSUNNY   62  48  60 W13       29.75S
6HR MIN TEMP:  57; 6HR MAX TEMP:  62;

WAUKESHA       MOSUNNY   57  46  67 W10G16    29.77R
MILWAUKEE/TIMM MOSUNNY   59  45  58 W10       29.76R
RACINE         SUNNY     61  47  59 W10       29.77R
6HR MIN TEMP:  56; 6HR MAX TEMP:  61;

KENOSHA        SUNNY     60  49  66 W13       29.77R
6HR MIN TEMP:  53; 6HR MAX TEMP:  60;

FOND DU LAC    SUNNY     56  46  69 SW8       29.73R
6HR MIN TEMP:  50; 6HR MAX TEMP:  57;

SHEBOYGAN      SUNNY     57  52  83 W8        29.71S
6HR MIN TEMP:  49; 6HR MAX TEMP:  57;

WEST BEND      SUNNY     57  48  72 W15       29.74R
JUNEAU         SUNNY     54  47  77 SW8       29.77R
6HR MIN TEMP:  49; 6HR MAX TEMP:  56;

$$

LSZ147-162-291300-
LAKE SUPERIOR

STATION/POSITION TIME  TEMP    WIND        PRES    WAVE
                       AIR SEA DIR/SP/G            HT/PER
                 (UTC) (F)     (DEG/KT/KT) (MB)    (FT/S)
W MID LAKE BUOY  1150   41 37  280/  6/ 10 1001.7R   1/ 3
DEVILS ISLAND    1200   47     240/ 16/ 18 1002.7R
PORT WING        1040   54     240/ 11/ 15 1003.4S
SAXON HARBOR     1140   54     230/  7/ 11 1003.4R
$$

LMZ867-665-643>646-291300-
LAKE MICHIGAN

STATION/POSITION TIME  TEMP    WIND        PRES    WAVE
                       AIR SEA DIR/SP/G            HT/PER
                 (UTC) (F)     (DEG/KT/KT) (MB)    (FT/S)
CHAMBERS ISLAND  1140   55     200/  4/  7 1004.4R
N MI


USA.gov is the U.S. government's official web portal to all federal, state and local government web resources and services.